{"data":{"norad_id":2874,"intl_designator":"1967-053H","name":"OPS 5712 (P/L 153)","alt_names":[],"object_type":"PAYLOAD","status":"ACTIVE","operator":null,"country":"US","launch_date":"1967-05-31","launch_site_code":"AFWTR","launch_vehicle":null,"mission":null,"orbit_class":"UNKNOWN","rcs_meters":0.6606,"size_class":null,"mass_kg":null,"dimensions":null,"purposes":["military"],"wikipedia_slug":null,"has_3d_model":false,"image_url":null,"decayed_at":null,"tle_current":{"epoch":"2026-09-20T00:07:29.306784Z","epoch_age_seconds":53881,"freshness":"FRESH","line1":"1 02874U 67053H   26263.00520031  .00000003  00000+0  40390-4 0  9994","line2":"2 02874  69.9718 272.0683 0004698  61.0302 299.1275 13.96839607 20032","mean_motion":13.96839607,"eccentricity":0.0004698,"inclination_deg":69.9718,"raan_deg":272.0683,"arg_perigee_deg":61.0302,"mean_anomaly_deg":299.1275,"bstar":4.039e-5,"rev_number":2003,"period_min":103.08986033784,"perigee_km":901.33815207313,"apogee_km":908.18116177198,"semimajor_km":7282.8966569226,"source":"CELESTRAK","updated_at":"2026-09-20T09:00:47.876212Z"}}}